Cloud_Cover
33 68 72 100 100 100 100 100 100 100 100 100 100 100 100 100 100 100 100 100 100 15 90 100 100 100 100 100 70 22 64 100 100 5 97 14 6 20 5 62 16 5 20 45 12
4 0 0 15 92 100 100 100 100 100 100 98 100 78 70 100 100 99 100 100 100 46 92 100 100 100 100 95 44 6 78 100 99 65 5 5 5 5 8 22 7 89 77 51 5
100 82 72 0 0 43 100 96 100 100 100 100 100 100 90 100 100 100 100 100 100 97 88 100 100 82 5 11 64 5 8 46 93 100 5 47 58 5 38 69 100 3 9 42 9
13 38 40 17 0 6 90 97 87 86 100 55 56 100 100 6 92 100 100 100 100 100 100 100 100 100 100 93 100 4 77 43 94 95 9 100 5 14 6 98 1 56 66 62 7
0 6 8 10 23 1 4 21 5 70 38 42 81 100 100 37 100 100 100 100 100 100 98 100 100 100 38 70 88 70 78 26 66 98 100 100 5 11 99 92 88 100 24 5 5
0 39 0 3 6 0 0 0 1 2 0 0 41 97 97 100 100 100 100 100 100 100 100 100 100 100 68 65 42 4 2 5 5 82 100 100 4 11 100 62 100 94 46 5 5
12 0 0 14 3 50 4 16 12 0 1 0 23 43 99 63 100 100 100 100 100 100 100 100 100 100 94 5 1 0 0 1 26 98 100 69 82 100 100 88 100 16 4 3 3
0 0 0 22 39 36 1 0 0 0 70 10 58 100 66 34 93 75 95 77 55 93 100 100 100 100 65 51 67 5 1 35 100 100 100 24 100 100 100 100 100 77 0 5 5
0 0 0 0 0 0 0 0 0 0 27 97 94 83 22 0 0 2 13 43 99 7 51 100 97 100 100 100 100 100 100 100 100 100 42 37 94 100 100 62 66 1 4 5 54
0 0 0 0 0 0 0 2 0 0 5 100 74 34 0 0 0 0 2 100 99 64 5 9 7 77 100 100 100 100 100 100 100 100 86 100 100 100 86 99 12 5 2 4 4
16 0 0 0 0 0 24 0 0 0 0 3 0 0 0 0 0 4 0 5 100 85 5 13 42 0 4 0 5 8 53 100 100 100 100 95 100 37 22 5 5 5 1 4 5
72 0 1 0 0 0 89 0 46 60 69 0 0 0 0 0 0 0 0 0 4 13 100 95 0 73 81 37 4 5 3 41 96 100 27 4 3 17 8 3 2 0 5 0 58
1 0 0 0 0 2 0 1 67 100 88 6 0 0 0 0 0 0 0 0 0 52 46 5 32 98 5 1 4 4 5 0 1 100 5 4 8 5 20 0 5 5 3 12 100
0 0 0 0 0 0 35 0 64 95 86 2 0 0 0 0 0 0 0 0 0 0 100 96 56 22 1 4 5 1 39 41 93 85 5 79 0 0 2 8 9 30 5 17 6
1 16 0 0 98 63 0 0 3 36 36 0 45 38 0 0 0 0 0 0 0 0 4 43 100 100 100 100 99 7 99 19 5 8 14 0 0 100 0 65 98 6 5 3 0
0 4 1 76 76 9 0 0 2 79 35 0 14 28 28 3 0 0 0 0 0 0 0 2 60 6 17 96 47 23 35 75 38 4 0 3 43 88 2 100 84 12 0 4 5
0 27 96 100 35 0 0 1 19 97 0 9 3 49 100 33 0 0 0 0 0 0 0 0 0 5 8 100 93 5 4 5 4 0 28 100 37 8 90 97 9 0 5 25 5
26 74 66 99 6 14 2 30 98 0 0 2 0 7 100 100 85 1 0 0 0 0 0 0 0 0 60 100 100 99 94 37 4 33 100 96 84 10 74 33 4 5 98 36 5
94 25 35 5 13 29 23 80 3 1 8 4 0 0 100 100 100 76 0 0 0 0 0 0 0 0 0 100 100 100 3 88 99 100 100 17 100 100 90 5 18 100 83 5 4
100 98 5 21 96 99 96 63 15 49 22 5 5 0 71 100 100 100 53 44 22 0 0 0 0 0 3 39 82 1 6 10 4 100 4 90 100 100 100 100 97 10 6 5 5
52 1 22 74 100 100 100 100 99 27 5 5 4 5 2 100 100 100 100 100 62 2 0 0 0 0 0 0 31 7 0 0 4 40 57 100 100 100 100 16 4 62 5 5 5
98 5 5 46 99 96 86 100 93 98 68 16 5 5 30 100 100 100 100 100 99 61 5 0 0 0 0 0 0 95 4 58 6 100 100 100 100 100 90 5 61 6 66 13 6
100 94 5 73 100 100 91 30 87 100 80 41 5 79 5 100 100 100 100 100 100 95 59 5 0 0 0 0 0 2 100 100 100 88 16 74 26 100 63 80 100 86 58 36 38
43 52 5 39 100 99 100 81 11 52 97 95 5 2 51 100 100 100 100 100 100 100 100 53 0 0 0 0 0 26 98 32 53 75 100 100 99 100 100 100 91 63 18 74 5
6 14 79 96 97 98 100 99 5 60 5 31 10 95 94 100 100 100 100 100 100 100 100 69 7 0 0 0 0 0 50 63 86 100 100 100 94 100 97 60 100 100 19 52 32
28 97 83 95 96 89 83 22 90 6 63 28 70 5 40 81 100 100 100 100 100 100 100 98 3 3 0 0 0 0 0 100 100 100 100 19 9 100 61 89 32 100 39 73 29
100 64 100 99 98 100 100 77 51 98 10 19 5 5 5 64 100 100 100 100 100 100 100 100 81 22 1 0 0 0 0 2 100 100 100 100 100 100 100 18 55 96 82 26 20